Погода в Калиновке

Украина / Кировоградская область     48°23′29″N   32°22′02″E
темп.,
°C
ветер,
м/с
пор.,
м/с
влажн.,
%
обл.,
%
осадки,
мм/ч
давл.,
гПа
погр.,
м
11 апреля, вс
вс1100:00+6в22490 0.0 102710
03:00+5с22470 0.0 102710
06:00+4ссв22510 0.0 102816
09:00+9св35440 0.0 1029388
12:00+12св55360 0.0 10281543
15:00+14св56351 0.0 10261615
18:00+13ссв5640100 0.0 10261243
21:00+9с4753100 0.0 1026120
12 апреля, пн
пн1200:00+8ссв4858100 0.0 1026136
03:00+6ссв476499 0.0 1025119
06:00+6с4106781 0.0 1024207
09:00+9ссв5863100 0.0 1023457
12:00+11св4567100 0.2 1022566
15:00+14ссв4461100 0.2 1021917
18:00+13с4670100 0.0 1020437
21:00+11ссз4987100 0.6 1020285
13 апреля, вт
вт1300:00+11с3689100 0.2 1018175
03:00+11з1192100 0.2 101824
06:00+10ю3496100 0.1 1018131
09:00+9ююв5894100 0.6 1019347
12:00+10ююв4781100 0.4 1020472
15:00+14ююв6665100 0.4 10191024
18:00+12ююв4672100 0.0 1018683
21:00+11юв3781100 0.1 1019252
14 апреля, ср
ср1400:00+10ююв2585100 0.0 1018159
03:00+9ю2486100 0.0 1018134
06:00+8ю2486100 0.0 1017173
09:00+10ююв3475100 0.0 1017515
12:00+13ю456255 0.0 10161112
15:00+14ю455584 0.5 10151410
18:00+13ююз455417 0.3 10151337
21:00+10ююз1169100 0.3 101510
15 апреля, чт
чт1500:00+10всв227090 0.0 101552
03:00+9вюв2379100 0.0 101478
06:00+8вюв368796 0.0 1014172
09:00+11вюв457350 0.0 1014484
12:00+15в4552100 0.0 10131246
15:00+16вюв5548100 0.0 10111833
18:00+14юв3456100 0.0 1011831
21:00+12в1264100 0.0 101036